Burnside, LA

3:35 PM CDT on September 28, 2016 (GMT -0500)
Gonzales

Weather History for KL38 - September, 2012

Change the Weather History Date:

Wednesday, September 19, 2012

  Actual Average (KBTR) Record (KBTR)
Temperature  
Mean Temperature 71 °F 78 °F  
Max Temperature 80 °F 88 °F 97 °F (1904)
Min Temperature 62 °F 68 °F 47 °F (1901)
Degree Days  
Heating Degree Days 0 0  
Month to date heating degree days 0  
Since 1 July heating degree days 0  
Cooling Degree Days 6 13  
Month to date cooling degree days 287  
Year to date cooling degree days 2448  
Growing Degree Days 21 (Base 50)    
Moisture  
Dew Point 60 °F    
Average Humidity 71    
Maximum Humidity 92    
Minimum Humidity 49    
Precipitation  
Precipitation 0.00 in 0.14 in 4.04 in (1898)
Month to date precipitation 2.98  
Year to date precipitation 44.69  
Snow  
Snow - - - ()
Month to date snowfall  
Since 1 July snowfall  
Since 1 September snowfall  
Snow Depth -    
Sea Level Pressure  
Sea Level Pressure 30.05 in    
Wind  
Wind Speed 3 mph ()    
Max Wind Speed 7 mph    
Max Gust Speed -    
Visibility 10.0 miles    
Events      
T = Trace of Precipitation, MM = Missing Value Source: Averaged Metar Reports

Daily Weather History Graph

Daily Weather History Graph

Search for Another Location

Airport or City:

Trip Planner

Search our weather history database for the weather conditions in past years. The results will help you decide how hot, cold, wet, or windy it might be!

Date:

Astronomy

Sep. 19, 2012 Rise Set
Actual Time 6:50 AM CDT 7:03 PM CDT
Civil Twilight 6:26 AM CDT 7:27 PM CDT
Nautical Twilight 5:58 AM CDT 7:55 PM CDT
Astronomical Twilight 5:30 AM CDT 8:23 PM CDT
Moon 10:39 AM CDT (9/19) 9:36 PM CDT (9/19)
Length of Visible Light 13h 00m
Length of Day
12h 12m
Waxing Crescent, 17% of the Moon is Illuminated
Sep 19
Waxing Crescent
Sep 22
First Quarter
Sep 29
Full
Oct 8
Last Quarter
Oct 15
New

Hourly Weather History & Observations

Time (CDT) Temp. Heat Index Dew Point Humidity Pressure Visibility Wind Dir Wind Speed Gust Speed Precip Events Conditions
12:15 AM 70.3 °F - 66.6 °F 88% 30.02 in 10.0 mi Calm Calm - N/A   Scattered Clouds
12:35 AM 69.8 °F - 66.6 °F 89% 30.02 in 10.0 mi NNE 3.5 mph - N/A   Scattered Clouds
12:55 AM 69.3 °F - 66.2 °F 90% 30.02 in 10.0 mi North 3.5 mph - N/A   Clear
1:15 AM 69.1 °F - 65.3 °F 88% 30.02 in 10.0 mi North 3.5 mph - N/A   Clear
1:35 AM 68.9 °F - 64.6 °F 86% 30.02 in 10.0 mi North 3.5 mph - N/A   Clear
1:55 AM 68.0 °F - 64.6 °F 89% 30.02 in 10.0 mi North 3.5 mph - N/A   Clear
2:15 AM 67.1 °F - 64.8 °F 92% 30.02 in 10.0 mi Calm Calm - N/A   Clear
2:35 AM 67.3 °F - 64.4 °F 90% 30.02 in 10.0 mi North 5.8 mph - N/A   Clear
2:55 AM 67.1 °F - 63.9 °F 89% 30.02 in 10.0 mi North 4.6 mph - N/A   Clear
3:15 AM 66.9 °F - 62.6 °F 86% 30.02 in 10.0 mi North 3.5 mph - N/A   Clear
3:35 AM 65.7 °F - 63.0 °F 91% 30.03 in 10.0 mi North 3.5 mph - N/A   Clear
3:55 AM 65.8 °F - 62.6 °F 89% 30.03 in 10.0 mi North 4.6 mph - N/A   Clear
4:15 AM 65.5 °F - 62.1 °F 89% 30.02 in 10.0 mi North 6.9 mph - N/A   Clear
4:55 AM 65.3 °F - 59.9 °F 83% 30.03 in 10.0 mi North 5.8 mph - N/A   Clear
5:15 AM 64.6 °F - 59.0 °F 82% 30.03 in 10.0 mi North 4.6 mph - N/A   Clear
5:35 AM 64.0 °F - 58.8 °F 83% 30.04 in 10.0 mi North 4.6 mph - N/A   Clear
5:55 AM 63.7 °F - 58.5 °F 83% 30.04 in 10.0 mi Calm Calm - N/A   Clear
6:15 AM 63.5 °F - 58.5 °F 84% 30.05 in 10.0 mi Calm Calm - N/A   Clear
6:35 AM 63.0 °F - 58.6 °F 86% 30.05 in 10.0 mi NNE 3.5 mph - N/A   Clear
6:55 AM 62.6 °F - 58.6 °F 87% 30.06 in 10.0 mi Calm Calm - N/A   Clear
7:15 AM 62.6 °F - 58.6 °F 87% 30.06 in 10.0 mi NNE 3.5 mph - N/A   Clear
7:35 AM 62.6 °F - 59.0 °F 88% 30.07 in 10.0 mi North 3.5 mph - N/A   Clear
7:55 AM 63.3 °F - 58.6 °F 85% 30.07 in 10.0 mi North 6.9 mph - N/A   Clear
8:15 AM 64.0 °F - 58.3 °F 82% 30.07 in 10.0 mi North 4.6 mph - N/A   Clear
8:35 AM 65.3 °F - 57.7 °F 76% 30.08 in 10.0 mi NNE 4.6 mph - N/A   Clear
8:55 AM 66.4 °F - 57.4 °F 73% 30.08 in 10.0 mi NNE 6.9 mph - N/A   Clear
9:15 AM 67.5 °F - 57.0 °F 69% 30.08 in 10.0 mi NNE 6.9 mph - N/A   Clear
9:55 AM 69.4 °F - 57.2 °F 65% 30.09 in 10.0 mi North 3.5 mph - N/A   Clear
10:15 AM 70.5 °F - 57.9 °F 64% 30.09 in 10.0 mi NNE 5.8 mph - N/A   Clear
10:35 AM 71.4 °F - 57.7 °F 62% 30.09 in 10.0 mi NNE 5.8 mph - N/A   Clear
10:55 AM 72.3 °F - 57.9 °F 60% 30.09 in 10.0 mi North 5.8 mph - N/A   Clear
11:15 AM 73.8 °F - 58.6 °F 59% 30.09 in 10.0 mi North 5.8 mph - N/A   Clear
11:35 AM 74.8 °F - 57.9 °F 55% 30.09 in 10.0 mi NE 5.8 mph - N/A   Clear
11:55 AM 75.4 °F - 57.2 °F 53% 30.09 in 10.0 mi NNE 4.6 mph - N/A   Clear
12:15 PM 76.3 °F - 57.2 °F 52% 30.08 in 10.0 mi NNE 5.8 mph - N/A   Clear
12:35 PM 76.5 °F - 57.2 °F 51% 30.08 in 10.0 mi North 5.8 mph - N/A   Clear
12:55 PM 77.0 °F - 57.7 °F 51% 30.07 in 10.0 mi North 3.5 mph - N/A   Clear
1:15 PM 77.4 °F - 58.3 °F 52% 30.06 in 10.0 mi NE 4.6 mph - N/A   Clear
1:35 PM 77.5 °F - 58.5 °F 52% 30.06 in 10.0 mi East 3.5 mph - N/A   Clear
1:55 PM 77.9 °F - 58.5 °F 51% 30.05 in 10.0 mi North 4.6 mph - N/A   Clear
2:15 PM 78.3 °F - 58.6 °F 51% 30.05 in 10.0 mi NNW 4.6 mph - N/A   Clear
2:35 PM 79.0 °F - 59.0 °F 50% 30.04 in 10.0 mi North 5.8 mph - N/A   Clear
2:55 PM 79.5 °F - 58.8 °F 49% 30.03 in 10.0 mi North 5.8 mph - N/A   Clear
3:15 PM 79.7 °F - 59.4 °F 50% 30.03 in 10.0 mi NNE 4.6 mph - N/A   Clear
3:35 PM 80.1 °F 80.8 °F 59.2 °F 49% 30.03 in 10.0 mi NNW 3.5 mph - N/A   Clear
3:55 PM 80.2 °F 81.0 °F 59.9 °F 50% 30.03 in 10.0 mi NNE 4.6 mph - N/A   Clear
4:15 PM 79.7 °F - 59.4 °F 50% 30.02 in 10.0 mi NNW 4.6 mph - N/A   Clear
4:35 PM 79.5 °F - 58.8 °F 49% 30.02 in 10.0 mi North 5.8 mph - N/A   Clear
4:55 PM 79.5 °F - 58.6 °F 49% 30.02 in 10.0 mi North 4.6 mph - N/A   Clear
5:15 PM 79.2 °F - 59.0 °F 50% 30.02 in 10.0 mi NNE 5.8 mph - N/A   Clear
5:35 PM 79.0 °F - 59.0 °F 50% 30.02 in 10.0 mi North 3.5 mph - N/A   Clear
5:55 PM 78.3 °F - 59.0 °F 51% 30.02 in 10.0 mi North 4.6 mph - N/A   Clear
6:15 PM 77.4 °F - 59.4 °F 54% 30.02 in 10.0 mi Calm Calm - N/A   Clear
6:35 PM 75.9 °F - 60.4 °F 59% 30.03 in 10.0 mi North 3.5 mph - N/A   Clear
6:55 PM 73.0 °F - 62.2 °F 69% 30.03 in 10.0 mi Calm Calm - N/A   Scattered Clouds
7:15 PM 70.9 °F - 63.9 °F 78% 30.03 in 10.0 mi Calm Calm - N/A   Scattered Clouds
7:35 PM 69.1 °F - 63.9 °F 83% 30.03 in 10.0 mi Calm Calm - N/A   Scattered Clouds
7:55 PM 68.5 °F - 63.7 °F 84% 30.04 in 10.0 mi Calm Calm - N/A   Clear
8:15 PM 67.6 °F - 63.7 °F 87% 30.04 in 10.0 mi Calm Calm - N/A   Scattered Clouds
8:35 PM 68.9 °F - 61.9 °F 78% 30.05 in 10.0 mi North 3.5 mph - N/A   Scattered Clouds
8:55 PM 69.1 °F - 60.1 °F 73% 30.05 in 10.0 mi Calm Calm - N/A   Clear
9:15 PM 67.1 °F - 61.9 °F 83% 30.06 in 10.0 mi Calm Calm - N/A   Clear
9:35 PM 66.4 °F - 61.3 °F 84% 30.07 in 10.0 mi Calm Calm - N/A   Scattered Clouds
9:55 PM 66.0 °F - 60.6 °F 83% 30.07 in 10.0 mi North 3.5 mph - N/A   Clear
10:15 PM 68.2 °F - 58.1 °F 70% 30.07 in 10.0 mi Calm Calm - N/A   Clear
10:35 PM 67.3 °F - 58.5 °F 73% 30.08 in 10.0 mi Calm Calm - N/A   Clear
10:55 PM 64.0 °F - 60.1 °F 87% 30.08 in 10.0 mi North 3.5 mph - N/A   Clear
11:35 PM 66.7 °F - 57.2 °F 71% 30.07 in 10.0 mi Calm Calm - N/A   Scattered Clouds
11:55 PM 65.7 °F - 57.9 °F 76% 30.07 in 10.0 mi Calm Calm - N/A   Scattered Clouds